Wind_Speed
32 33 33 29 27 26 25 26 26 25 23 21 21 23 26 29 32 34 33 33 32 31 30 30 29 28 27 26 25 24 23 23 23 23 24 24 24 25 24 24 23 23 22 21 20 18 18 18 17 16 14 13 13 13 12 11 10 10 10 10 11 11 12 13 14 15 15 15 15 16 15 15 16 17 18 18 19 19 20 21 23 24 24 25 27
30 30 32 31 31 29 27 29 28 26 25 23 22 21 24 28 30 32 34 34 34 33 32 31 30 30 28 28 27 26 25 24 24 24 24 24 24 24 24 24 24 23 23 21 20 19 19 19 18 17 16 15 15 14 13 12 12 12 12 11 11 12 13 14 15 15 15 15 15 15 15 15 16 17 17 18 19 19 20 21 23 24 25 26 27
29 31 32 32 33 31 30 31 29 26 26 25 23 22 22 25 28 31 34 35 35 35 34 33 32 31 31 30 29 29 28 27 26 26 25 25 24 25 25 25 25 24 24 22 21 21 21 21 19 18 17 17 16 16 15 14 13 13 13 12 12 13 13 14 15 15 14 14 14 15 16 15 16 16 17 18 19 19 20 21 23 24 25 26 27
27 31 33 35 35 33 31 32 31 27 27 27 25 24 22 23 26 29 32 35 36 36 36 35 34 33 33 32 32 31 30 29 28 27 27 26 25 25 25 25 25 25 24 23 22 22 22 21 20 20 19 18 18 17 17 15 15 15 14 14 13 14 14 15 16 16 15 15 15 15 16 16 16 17 17 18 19 19 20 21 22 24 25 26 28
26 28 33 36 36 35 32 31 33 32 30 29 28 26 24 23 24 27 30 33 36 37 37 37 36 35 35 34 34 33 33 31 30 29 28 27 27 26 26 26 25 25 24 24 23 23 23 22 22 21 20 20 19 19 18 17 16 16 16 15 15 15 15 16 17 17 16 15 15 16 16 17 17 17 18 18 19 19 20 21 23 24 26 27 28
26 27 32 35 35 36 35 31 33 35 33 32 31 29 27 25 25 25 28 30 33 36 37 38 37 37 37 36 36 35 35 34 32 31 30 29 29 28 27 27 26 25 25 25 25 24 24 24 23 23 22 21 21 21 20 19 18 17 17 17 16 16 16 17 18 18 17 16 16 17 17 17 17 18 18 18 19 19 20 22 23 25 26 27 28
26 27 31 35 36 37 37 32 32 35 35 34 34 31 30 29 27 27 27 29 31 33 35 37 38 38 38 38 38 37 37 36 34 32 31 31 30 30 29 28 27 27 26 26 27 26 25 25 25 24 24 23 23 23 22 20 19 19 19 19 18 18 17 18 18 18 18 17 17 17 17 18 18 18 18 18 18 19 21 22 24 25 26 27 28
28 29 29 33 36 39 39 34 31 35 35 35 36 34 33 32 31 31 30 29 30 32 33 35 36 38 39 40 40 39 39 38 36 34 33 33 32 32 31 30 29 28 28 28 28 27 26 26 26 26 25 25 24 24 24 22 20 20 21 20 20 20 19 19 19 19 19 18 17 18 18 18 19 19 19 18 19 20 22 23 24 25 26 27 28
31 30 30 31 33 38 39 35 33 37 37 36 37 37 37 36 35 35 33 31 31 31 32 33 35 37 39 41 42 41 40 39 38 36 36 35 34 33 32 31 31 30 30 29 29 28 28 28 27 27 26 26 26 26 25 23 22 22 22 22 22 22 20 20 20 20 20 19 18 18 18 19 20 20 19 19 20 22 23 23 24 25 26 28 29
33 32 32 31 32 35 36 34 34 37 39 39 38 39 40 40 39 39 36 34 33 32 31 32 34 36 38 39 42 43 42 41 40 39 38 37 36 35 34 33 33 32 32 31 31 30 30 29 29 28 28 27 27 27 27 26 25 24 24 24 23 23 22 22 21 21 21 20 19 19 19 20 20 20 19 20 22 23 23 24 24 26 27 29 30
35 35 35 34 34 35 34 33 33 35 38 41 41 41 43 44 42 41 41 39 36 34 33 33 33 35 37 38 40 42 43 44 43 41 40 39 38 37 36 35 35 35 34 33 33 32 31 31 30 30 29 29 29 29 28 28 27 26 25 25 25 25 24 24 23 22 22 21 20 20 20 21 21 20 19 21 23 24 24 24 25 27 29 30 30
36 37 38 37 37 37 35 34 33 34 36 39 42 44 46 47 46 44 43 42 39 37 36 35 35 35 37 39 39 41 42 44 44 44 42 41 40 38 38 37 37 36 36 36 35 34 34 33 32 32 32 31 31 31 30 30 29 28 27 27 27 26 26 25 25 23 22 22 22 22 22 22 21 20 21 22 25 26 25 26 27 28 30 30 30
37 38 38 39 40 40 39 37 35 36 37 38 40 44 48 49 48 47 45 43 42 41 39 39 38 37 37 39 40 41 42 42 43 44 44 43 41 40 40 40 38 38 38 38 38 37 36 35 35 34 34 34 33 33 32 32 31 30 29 28 28 28 27 27 26 25 23 23 24 24 24 23 23 22 22 24 26 28 28 28 29 30 30 30 30
37 38 39 40 41 41 41 40 39 39 39 39 39 41 46 50 51 50 47 45 45 44 43 43 42 40 39 39 40 41 42 42 42 43 43 43 43 43 43 42 40 40 40 40 40 39 38 37 37 36 36 35 35 35 34 34 34 32 30 29 29 29 29 28 28 26 25 25 25 26 26 25 25 25 25 26 28 30 30 29 30 30 30 30 30
37 39 40 40 41 41 42 42 42 42 41 41 40 39 41 48 53 53 51 50 48 47 46 44 43 43 42 41 40 41 42 41 41 42 42 44 45 45 45 44 44 43 43 42 41 41 40 40 39 38 38 37 37 37 36 35 36 34 31 29 30 30 30 29 29 28 27 26 27 28 27 26 27 27 28 29 29 30 30 30 30 30 30 30 30
36 38 40 41 41 41 42 43 43 43 43 43 42 40 39 43 50 54 56 54 52 51 49 46 46 47 46 44 44 44 42 41 41 42 44 45 45 45 45 45 46 46 45 44 43 43 42 42 41 40 40 39 39 38 38 37 37 36 32 31 31 31 31 30 30 29 29 29 29 30 29 28 28 29 29 30 29 29 29 29 30 30 30 30 30
35 37 39 41 42 42 43 43 44 44 45 45 45 43 42 43 46 51 55 58 57 55 53 49 48 51 50 47 47 47 44 43 44 43 44 46 46 46 46 46 46 46 46 45 45 45 44 44 43 42 42 42 41 40 40 39 39 38 34 32 33 32 32 31 31 31 31 31 31 31 30 30 30 30 30 30 29 28 29 29 30 30 30 30 30
34 36 38 39 41 43 43 44 44 45 46 46 47 46 46 46 45 47 50 55 57 59 59 52 47 50 52 51 50 48 48 48 47 45 45 46 47 47 47 47 47 46 46 46 46 46 46 45 44 43 44 43 43 42 41 41 40 39 37 35 34 34 32 33 33 32 32 33 33 32 32 31 31 31 31 30 29 29 29 30 30 30 30 31 31
35 35 37 38 40 43 44 45 45 46 46 47 48 48 49 49 48 48 49 50 53 56 58 55 51 48 47 52 53 51 51 51 50 49 48 47 47 48 49 48 48 48 47 46 47 47 46 45 44 44 45 45 44 44 42 42 41 40 38 36 36 35 33 33 34 33 33 33 33 33 33 32 32 32 31 30 29 30 30 31 31 31 32 31 32
36 36 37 38 40 42 44 45 45 46 47 48 49 49 50 51 51 51 51 51 51 52 51 53 56 52 47 50 52 51 52 52 53 53 52 51 49 49 49 49 50 49 48 47 47 47 46 45 44 46 46 45 45 44 43 42 41 41 39 37 37 36 34 35 35 35 34 33 33 34 34 33 33 32 31 30 30 31 32 32 32 32 32 32 32
37 37 38 38 39 41 43 44 46 47 47 48 49 50 51 52 53 53 53 53 53 53 51 51 55 55 53 54 54 53 53 52 53 56 55 54 53 51 49 49 50 50 50 49 48 48 48 46 45 46 46 45 44 43 43 43 42 40 40 38 38 37 36 36 37 36 35 34 34 34 34 34 34 33 32 31 32 35 35 33 32 33 33 33 34
37 38 39 39 40 41 42 44 46 47 48 48 49 50 51 53 54 54 54 55 55 55 54 53 54 54 53 56 59 57 54 51 51 54 57 57 55 53 52 51 49 49 50 50 49 50 50 47 46 47 47 45 44 44 44 44 42 40 39 39 39 38 37 38 39 38 36 35 35 34 34 35 34 34 34 34 36 36 35 33 33 34 34 35 35
37 38 39 40 41 41 42 44 45 47 47 48 49 50 51 53 55 55 55 57 57 56 56 55 55 54 52 54 59 60 56 52 50 51 55 57 57 56 55 54 51 50 50 48 49 50 50 49 48 47 48 46 44 44 45 44 43 40 39 40 39 39 39 39 39 39 37 36 35 34 35 35 35 35 35 36 36 35 33 33 35 36 36 36 36
38 39 40 41 42 42 43 44 45 46 47 48 49 50 51 52 54 55 56 58 58 58 57 56 56 56 53 52 56 61 58 52 50 53 55 58 60 59 57 56 54 53 52 50 49 50 50 50 49 48 49 48 45 45 46 45 42 40 38 40 41 40 40 39 40 39 37 36 36 36 37 36 36 36 36 36 35 34 35 35 37 37 37 36 37
40 40 41 42 42 43 44 45 45 46 48 48 49 50 52 52 53 54 56 58 59 59 58 58 57 57 55 53 55 60 62 56 51 52 55 60 62 60 58 57 57 56 55 54 52 50 49 49 49 48 49 49 47 45 46 45 41 39 38 40 41 41 40 39 40 39 37 37 37 38 38 37 37 37 37 36 36 36 37 37 38 38 37 36 36
41 41 42 42 43 44 44 45 46 46 47 49 50 50 51 53 53 54 55 57 59 60 60 60 59 59 58 57 56 58 62 62 56 51 51 56 61 61 59 58 59 59 58 58 55 52 51 49 48 48 47 48 48 45 45 44 41 39 39 41 41 40 39 39 39 38 38 37 38 38 38 38 38 39 39 38 37 38 37 37 38 37 37 36 37
43 42 43 43 44 45 45 46 46 47 48 48 49 50 51 52 53 54 54 56 57 59 61 61 61 61 60 60 59 58 59 61 59 53 50 52 55 59 60 59 60 62 61 60 58 55 53 51 50 48 47 47 46 43 43 42 40 40 41 42 41 39 39 38 38 38 38 38 39 39 39 39 39 40 39 39 38 38 38 37 37 37 36 36 39
45 44 44 44 45 45 46 46 47 47 48 49 49 50 51 52 53 54 54 55 56 57 59 61 62 63 63 62 62 61 60 59 57 55 53 52 51 53 58 61 61 61 63 64 61 58 55 53 52 52 50 48 44 40 40 40 40 42 43 42 40 39 38 38 38 39 39 39 39 39 39 39 39 39 39 38 38 38 38 37 37 37 36 38 40
46 46 45 45 45 46 46 47 47 48 48 49 50 51 52 53 53 53 54 55 56 56 58 60 62 63 64 64 64 63 61 60 58 57 57 56 54 51 54 60 60 59 62 65 64 61 58 56 56 55 53 50 44 41 40 39 40 43 43 41 39 39 39 39 39 40 40 40 39 38 39 39 39 39 38 38 37 38 37 37 37 36 37 39 41
46 46 46 46 46 46 46 47 47 48 48 49 49 50 52 53 54 54 54 54 55 56 57 58 60 62 63 64 65 65 63 61 60 60 60 59 57 53 53 58 60 61 62 64 66 65 63 60 59 57 55 51 46 44 43 41 42 44 42 39 39 39 40 41 41 41 41 40 39 38 38 38 38 38 38 37 37 37 37 37 37 37 39 40 41
46 46 47 47 46 46 46 47 47 48 48 49 49 50 51 52 54 54 54 55 55 56 57 57 58 60 62 63 64 65 65 64 62 62 62 60 57 53 52 54 57 61 62 63 65 67 65 65 63 59 56 54 50 47 46 45 45 45 42 39 39 40 41 41 41 41 41 40 39 38 38 38 38 37 37 37 37 37 37 37 37 38 40 41 41
46 47 47 47 47 46 46 47 47 47 48 49 49 50 50 51 52 53 54 55 55 56 56 57 57 58 60 62 63 64 65 66 65 64 62 61 59 55 52 51 53 56 58 57 56 56 57 63 64 61 59 57 53 52 51 49 49 47 43 39 39 41 41 40 40 40 39 39 38 38 38 38 38 38 38 37 38 38 38 38 38 39 41 41 42
46 47 48 48 48 47 47 47 47 47 48 48 49 50 50 50 51 51 52 53 55 56 56 57 57 57 59 61 62 62 63 65 66 66 64 62 62 59 55 53 52 52 54 54 51 47 49 55 59 62 63 59 56 57 56 53 51 50 44 40 42 44 42 40 39 39 38 38 38 38 38 39 38 38 38 38 38 39 39 39 40 41 42 42 42
46 47 48 49 49 49 48 47 47 48 48 48 49 49 50 50 50 50 51 52 53 54 55 56 56 57 58 59 61 61 62 63 64 66 66 65 64 62 59 58 57 54 53 52 50 46 44 47 52 56 61 60 57 58 59 56 55 52 46 43 46 46 43 41 40 39 39 39 39 39 39 39 39 39 39 39 39 40 40 40 41 42 43 43 43
47 47 48 49 50 50 49 49 48 48 49 49 49 49 50 50 50 50 51 51 51 52 54 55 55 56 57 58 60 61 61 62 63 64 66 67 67 65 61 60 60 58 55 54 52 48 43 43 46 49 52 55 57 59 59 58 57 55 50 47 49 47 43 42 41 40 40 40 40 40 41 41 41 40 40 41 41 41 41 42 42 43 44 44 44
48 48 49 50 50 51 51 50 50 50 49 50 50 50 50 50 51 51 51 51 52 52 52 53 54 55 56 56 58 60 61 61 62 63 65 67 68 67 65 63 61 59 58 57 57 55 51 48 47 45 46 50 54 57 59 59 59 56 52 51 51 48 44 43 42 41 41 41 41 41 42 41 42 42 42 42 42 42 42 43 43 44 44 44 44
50 50 50 51 51 52 52 52 52 51 51 51 51 51 52 52 51 52 52 52 53 52 52 53 53 54 55 56 56 57 60 61 61 62 64 66 67 67 67 67 64 62 60 59 59 60 60 57 52 48 48 48 48 51 55 57 57 56 54 52 50 47 45 43 42 42 42 42 42 42 42 42 43 43 43 43 43 43 43 43 43 44 43 43 43
51 52 52 52 53 53 54 54 53 53 53 53 53 53 53 54 53 53 53 53 53 54 53 53 53 54 55 56 56 56 58 60 61 62 63 65 65 66 67 67 67 65 63 61 61 62 63 61 56 54 54 50 47 48 52 56 57 55 55 53 51 48 46 43 42 43 43 43 42 42 42 43 44 44 43 43 43 43 43 43 43 43 43 42 43
52 52 53 53 54 54 54 54 55 55 55 55 54 55 55 55 55 55 55 55 54 54 55 55 55 55 55 56 57 56 56 58 60 61 62 64 64 64 65 66 66 65 64 63 63 62 62 60 57 58 60 57 51 48 49 53 55 55 55 54 52 48 44 41 41 43 44 44 44 43 43 44 44 43 43 44 44 44 43 42 42 42 42 41 42
51 52 53 53 54 54 54 54 55 56 56 56 56 56 55 56 56 56 56 56 56 56 56 56 56 56 56 57 57 57 56 56 58 60 62 63 63 63 64 64 63 64 64 65 65 64 63 59 57 59 62 61 55 50 49 50 51 52 53 52 50 46 43 42 42 44 45 45 45 44 43 44 44 43 44 45 44 43 42 41 41 41 40 39 40
51 52 52 52 53 54 54 54 55 55 56 56 56 56 56 56 57 57 57 57 57 57 57 57 57 57 58 58 58 58 57 56 57 59 61 63 63 62 63 63 62 62 61 62 64 65 64 60 58 60 63 61 56 51 51 50 48 50 50 49 49 48 46 45 44 46 47 45 43 42 42 44 44 44 45 45 43 41 40 40 40 39 37 37 39
51 52 52 52 52 53 53 54 55 55 56 56 56 56 57 57 58 58 59 59 58 59 59 59 59 59 59 59 59 60 59 57 57 58 60 63 63 62 61 61 61 61 60 61 62 63 63 62 62 64 64 62 56 51 51 50 47 47 48 48 50 51 48 46 45 46 45 43 41 42 43 44 45 45 44 42 40 39 39 38 39 37 36 37 39
51 52 52 52 52 53 53 54 54 55 55 55 55 56 56 57 58 59 59 60 60 60 60 60 60 60 60 61 61 61 61 59 58 57 59 61 63 62 61 60 60 59 59 61 62 59 58 60 65 67 65 61 56 52 53 52 49 46 47 49 52 51 48 46 45 44 42 41 42 43 43 44 44 43 42 40 38 38 39 39 38 36 35 36 38
51 51 52 52 52 53 54 54 54 54 55 55 55 56 56 57 58 60 60 61 61 61 61 61 61 61 61 62 62 62 62 60 59 58 58 59 62 63 61 60 60 60 59 61 61 59 56 58 64 67 65 60 54 52 53 53 52 51 51 52 53 51 47 45 44 43 41 41 42 43 43 43 42 42 41 38 37 37 39 37 35 33 35 37 39
51 51 51 52 53 53 54 55 55 55 55 55 55 56 57 58 59 60 61 61 62 62 62 63 63 62 62 63 63 63 62 61 60 59 57 58 60 62 63 62 61 61 62 62 60 58 58 59 61 64 65 60 53 50 50 52 53 54 54 54 54 51 48 45 43 42 41 41 43 43 43 42 42 41 40 39 37 35 34 34 33 34 37 39 42
51 51 52 52 52 53 54 55 55 55 56 56 57 57 57 58 59 61 62 62 63 62 62 63 63 63 63 63 63 63 62 62 60 59 58 57 58 61 63 63 62 62 62 62 62 60 58 58 59 62 65 62 54 49 49 51 53 54 54 53 52 50 47 44 42 41 41 42 43 43 42 41 40 40 40 39 36 31 31 34 35 37 39 41 44
51 51 52 52 52 53 53 54 55 55 56 57 58 58 59 59 60 62 63 63 63 63 63 62 62 63 63 63 63 63 62 62 60 58 58 57 57 59 62 63 63 63 63 62 63 63 60 57 56 59 62 61 56 53 53 55 56 55 53 51 49 47 45 44 42 42 42 42 41 41 42 41 39 40 41 39 33 31 34 37 39 39 41 44 46
50 50 51 52 52 53 53 54 54 54 55 57 58 59 59 60 61 62 63 64 65 64 63 62 61 62 62 62 62 62 62 61 59 58 57 57 58 59 61 63 64 65 64 63 63 64 63 60 57 58 60 59 56 55 57 59 60 58 54 50 47 45 44 45 44 43 42 41 40 41 43 42 39 39 41 39 35 35 37 39 41 43 44 46 47
48 49 50 51 52 53 53 54 54 55 55 56 58 59 60 61 62 63 64 65 65 64 63 61 60 61 61 61 62 62 62 60 58 57 57 57 57 58 60 62 64 66 66 65 64 64 63 62 60 60 60 59 57 56 57 59 61 60 56 51 47 44 45 46 46 44 43 41 41 44 45 42 40 41 42 41 39 39 40 41 44 45 46 48 47
47 48 50 51 51 52 53 54 55 56 56 56 58 59 60 61 62 63 64 65 65 64 63 61 59 59 60 60 61 62 61 58 57 57 56 55 56 57 59 60 63 65 66 65 64 63 62 62 62 61 60 60 58 57 57 58 59 59 58 53 48 47 48 48 47 45 44 42 43 44 44 42 42 43 43 42 41 42 42 43 45 47 48 48 45
48 49 50 51 51 52 53 53 54 54 54 54 54 55 57 59 60 61 63 64 63 62 61 60 58 58 58 59 60 61 59 57 57 56 55 54 55 56 57 58 61 64 65 64 64 64 62 61 62 63 62 61 60 60 59 57 58 59 58 53 50 49 50 49 47 45 44 43 43 44 43 42 41 42 42 42 42 43 43 43 45 48 49 47 44
Wind_Direction
214 215 215 217 217 218 218 219 223 223 219 215 214 217 220 220 217 213 211 210 210 212 213 213 214 217 218 219 221 221 220 220 219 217 216 215 213 212 213 215 218 221 223 224 224 226 228 230 231 233 237 240 245 249 252 254 258 264 273 281 290 299 306 310 311 314 319 323 325 326 324 324 323 324 325 326 328 331 335 336 335 336 338 340 341
222 219 213 215 219 218 217 220 221 221 221 219 216 217 220 221 221 218 215 213 212 212 214 216 216 217 219 221 223 223 222 221 221 220 220 219 219 219 219 220 222 225 227 227 227 229 231 234 235 237 239 241 245 249 252 253 257 263 269 277 286 294 300 304 306 309 314 316 319 322 320 320 321 322 324 325 326 328 332 333 333 334 336 337 338
224 220 216 217 222 221 218 221 222 219 220 222 220 218 220 221 223 223 219 216 215 214 215 216 217 219 220 222 224 225 224 223 222 222 222 222 223 224 224 224 225 227 229 230 230 231 234 236 238 240 242 243 246 249 252 253 257 262 267 273 280 288 294 297 300 303 307 310 313 317 317 317 320 322 324 325 325 327 330 331 331 332 334 336 337
226 220 219 220 224 225 222 223 225 222 220 223 224 221 221 221 223 225 224 221 218 217 216 217 218 220 221 223 225 226 226 225 224 223 223 222 223 225 227 228 229 230 231 232 233 234 236 239 241 242 244 246 248 250 252 253 256 261 264 270 275 281 288 291 294 297 302 306 309 312 314 315 318 321 323 324 324 326 328 329 329 330 333 334 335
234 224 221 222 224 226 227 226 224 222 221 223 225 224 222 221 222 224 226 225 224 221 219 218 218 219 222 224 226 227 228 227 225 225 225 224 223 224 226 228 230 231 232 234 235 236 238 240 241 243 245 247 249 251 252 253 255 259 263 267 272 276 282 285 289 293 299 303 304 308 311 313 316 320 322 322 323 324 325 326 327 329 331 332 333
239 229 224 225 225 226 228 228 223 219 220 222 225 226 224 223 222 223 225 226 227 227 225 222 221 221 222 225 227 228 229 229 228 227 227 226 226 224 224 225 227 229 231 234 236 237 238 240 242 243 245 247 249 250 251 252 254 258 262 265 269 273 278 282 285 289 295 298 301 305 307 310 314 317 318 319 321 321 322 324 326 328 330 331 332
240 235 230 228 229 228 228 231 225 219 220 222 224 226 227 226 224 223 224 225 227 229 230 228 226 224 224 225 228 229 230 230 230 229 228 229 228 226 225 224 225 227 229 232 236 238 240 242 244 245 247 248 249 251 252 253 256 258 261 265 268 272 276 280 283 286 290 293 296 299 302 305 310 313 314 316 317 318 320 322 325 327 329 330 331
241 241 237 230 230 230 232 237 231 222 223 224 224 226 228 228 228 227 224 223 225 227 230 232 231 229 228 227 229 230 231 231 231 230 230 230 230 229 227 226 225 226 228 231 235 238 240 242 244 246 248 249 250 252 254 255 257 259 261 265 268 271 275 278 280 283 286 288 291 295 298 302 307 311 311 311 314 316 319 322 324 327 328 328 329
240 241 241 236 233 233 236 240 233 225 227 228 226 227 229 229 229 230 229 227 226 226 227 230 232 233 232 231 231 232 233 233 233 232 232 232 232 231 230 228 227 227 228 230 233 236 239 241 244 246 248 250 251 253 255 257 258 260 262 265 268 271 273 276 278 280 282 284 288 292 296 301 306 308 309 309 312 314 317 320 323 326 327 327 327
241 239 239 238 237 239 241 240 234 230 231 233 232 229 231 232 230 230 232 232 230 229 229 229 230 233 233 234 234 234 234 235 235 234 233 233 234 234 233 231 230 229 229 230 232 235 238 241 243 245 247 249 252 254 256 258 259 261 264 266 269 271 273 274 275 276 279 282 286 290 294 300 304 306 307 308 311 313 315 318 322 324 326 326 327
242 240 240 237 237 241 243 240 236 234 234 237 238 234 232 233 233 232 231 232 233 233 233 232 232 233 234 235 236 236 236 236 236 236 235 235 235 235 235 234 233 232 232 232 233 235 238 240 242 244 246 248 251 254 256 258 260 262 264 267 268 270 271 272 273 274 277 280 283 286 290 296 301 304 305 308 312 314 314 317 320 323 325 326 326
243 241 241 240 239 241 242 241 238 235 235 238 240 238 234 233 233 235 234 233 233 234 233 233 234 235 236 236 237 237 236 237 237 237 237 236 236 237 237 236 236 235 235 235 236 237 238 241 243 244 245 247 250 253 256 258 260 263 264 266 267 268 269 270 272 273 275 278 281 283 287 292 297 300 303 306 311 313 313 316 318 321 324 326 326
244 243 242 241 242 242 243 243 240 238 238 239 240 239 237 235 233 235 238 236 235 235 235 234 234 236 238 237 237 238 237 237 238 239 239 239 239 239 239 239 238 238 238 238 238 239 240 241 243 244 246 248 250 253 256 259 261 263 264 266 268 268 269 270 272 273 274 276 279 281 285 289 294 298 302 305 309 310 311 313 316 319 323 325 325
244 244 243 242 242 242 242 243 242 241 241 240 240 239 237 236 235 236 238 238 237 237 237 236 235 237 239 240 239 239 239 238 239 240 240 241 241 240 239 240 240 240 240 240 240 241 241 242 244 245 247 248 251 254 256 259 262 263 265 267 267 268 269 270 272 273 273 275 278 280 283 287 291 297 302 305 308 308 308 310 314 318 322 324 324
243 244 244 244 243 243 243 242 242 242 242 240 239 239 238 236 236 237 238 238 238 240 241 240 239 239 240 241 242 241 241 240 240 241 240 241 241 240 240 240 240 240 240 240 241 242 243 243 244 246 248 249 251 255 257 259 262 264 265 266 267 268 269 270 272 273 274 275 277 279 282 285 289 294 300 305 308 307 307 309 312 317 321 323 324
246 244 245 245 244 244 244 243 242 242 242 240 238 238 238 236 236 236 237 239 239 240 242 242 241 241 240 241 242 241 241 242 242 242 241 241 241 242 242 241 241 242 242 242 242 243 244 244 245 246 249 250 251 254 257 259 262 264 265 266 267 268 269 271 272 274 275 275 276 279 282 285 288 293 298 304 307 306 306 309 312 316 320 321 322
250 248 246 246 245 245 244 244 243 243 242 241 240 238 237 236 235 235 236 238 240 240 241 243 244 243 242 242 242 242 242 243 242 242 242 242 242 243 243 242 243 243 244 244 244 244 244 245 245 246 248 251 252 254 256 259 261 263 264 265 267 269 271 272 273 274 275 276 277 279 283 286 288 291 296 301 304 303 306 309 312 315 318 319 320
253 251 249 248 248 246 245 244 244 243 243 242 242 240 238 237 236 236 236 237 239 239 240 243 246 246 243 242 243 243 242 242 243 243 244 244 243 243 243 243 243 243 244 245 245 246 246 247 247 248 249 251 253 255 257 259 261 264 265 266 268 270 272 273 274 274 275 276 278 280 283 286 288 291 295 299 301 301 304 307 310 314 316 317 317
256 253 251 250 250 249 247 246 244 244 243 243 243 241 240 239 237 236 235 235 236 238 239 239 241 244 242 240 240 241 241 242 243 244 244 245 245 245 244 243 243 243 243 243 245 247 248 249 250 250 251 252 254 256 258 260 262 264 265 266 268 270 272 273 274 275 276 277 279 281 283 285 288 291 294 297 298 299 302 304 308 312 314 314 315
260 257 255 252 251 251 249 248 246 245 244 243 243 243 242 240 239 237 236 236 236 236 238 237 239 244 243 241 240 241 241 241 242 243 244 244 245 246 246 245 244 244 243 243 244 246 247 248 249 250 251 252 254 256 258 260 261 263 265 266 268 270 272 273 275 276 277 278 279 281 283 286 288 290 293 295 297 299 300 302 305 310 311 310 312
260 260 259 256 253 251 251 250 248 247 246 244 243 243 243 242 241 240 239 238 238 238 239 238 241 245 245 243 242 241 243 242 241 242 244 244 244 246 248 248 248 246 245 243 243 244 245 245 247 249 250 251 253 255 257 258 260 262 264 266 268 270 271 273 275 277 278 279 280 282 284 286 289 291 292 293 295 297 298 299 303 307 308 308 309
260 260 260 259 257 254 252 251 250 249 248 247 245 243 243 244 243 242 241 240 239 240 241 240 242 244 245 243 240 241 244 245 243 241 243 246 246 246 247 248 250 250 249 247 245 245 245 245 245 247 249 250 251 252 254 256 258 260 263 265 267 268 270 271 273 275 277 279 281 283 285 287 288 290 290 291 294 296 296 298 302 306 306 306 308
261 260 260 259 259 257 255 253 252 250 249 248 248 245 243 244 244 244 243 243 242 242 242 242 243 244 244 242 239 239 243 246 247 244 244 246 246 246 246 247 248 250 251 250 248 248 247 246 245 246 249 249 249 251 253 255 257 259 262 264 265 266 267 269 272 274 276 278 281 283 285 286 287 288 289 291 294 296 297 298 302 304 304 304 306
264 262 261 260 259 258 257 255 254 253 251 249 248 248 246 244 244 244 244 244 244 244 243 244 244 244 244 243 239 238 241 246 249 248 245 246 246 245 245 246 247 247 249 249 249 249 249 249 247 247 249 250 249 250 252 255 257 259 261 262 263 265 266 268 270 272 275 276 278 280 283 285 285 287 289 292 295 296 297 299 302 303 303 303 305
267 265 263 262 260 259 257 256 255 254 253 252 249 248 248 246 244 244 244 245 245 245 244 244 245 245 245 244 241 238 239 242 248 249 247 245 244 242 244 246 247 248 248 248 248 249 250 250 250 249 249 251 250 250 252 255 257 259 260 261 262 264 266 267 269 271 273 274 276 277 280 282 284 286 289 291 293 294 296 299 301 303 303 303 305
269 267 265 263 261 260 258 257 255 254 253 253 252 250 249 248 247 245 244 244 245 246 245 244 245 246 245 245 244 242 241 242 246 248 247 244 241 241 243 245 247 248 248 248 247 249 250 251 251 251 250 251 252 251 253 255 257 257 257 259 261 264 265 266 268 270 272 272 274 276 278 281 283 285 288 290 292 294 296 299 301 303 303 302 305
272 269 267 265 262 261 259 257 256 254 253 252 252 251 250 249 248 247 245 244 244 245 246 245 245 245 245 245 245 245 246 247 247 247 246 243 240 240 241 243 246 247 247 249 247 247 249 251 252 252 251 252 253 253 255 256 256 256 256 257 260 262 264 265 267 269 271 272 273 276 278 280 282 284 287 289 291 293 296 299 301 302 302 302 305
274 271 269 267 264 262 260 258 257 255 253 251 250 250 250 249 249 248 248 246 245 244 245 246 246 245 245 245 245 245 247 249 249 247 247 244 240 239 239 240 244 246 247 249 248 247 247 249 250 251 251 252 253 254 255 255 255 254 255 257 259 261 263 264 265 267 269 271 273 275 278 280 282 284 286 288 290 293 296 298 300 301 300 301 305
274 273 271 268 266 264 262 261 259 256 254 252 250 249 249 249 249 248 247 247 246 245 244 244 245 246 246 245 245 245 246 248 248 247 248 246 242 241 239 238 240 245 247 248 249 248 247 247 248 249 250 251 252 253 254 253 253 254 255 257 258 260 261 262 263 266 268 270 273 276 278 280 282 283 285 287 289 291 294 297 299 299 298 301 304
273 272 271 269 267 265 264 262 260 259 257 254 251 249 248 248 248 248 247 246 247 246 245 243 243 245 247 246 246 246 245 246 247 247 248 248 244 240 240 239 239 242 247 250 250 249 248 247 246 247 249 250 249 250 252 252 252 253 255 256 257 258 260 261 263 266 268 270 274 276 278 280 280 282 284 285 287 290 293 296 297 296 297 300 302
271 271 270 269 268 266 264 263 261 260 259 257 254 251 249 247 247 247 248 247 246 246 246 245 243 243 245 247 246 246 246 245 246 246 247 249 246 239 236 239 241 241 244 247 249 250 249 248 246 246 248 248 248 248 249 250 251 253 254 256 258 259 260 262 265 267 269 271 273 276 277 278 279 281 282 284 286 289 292 294 295 295 295 298 300
270 270 270 269 268 267 265 263 262 260 259 258 256 254 251 249 247 246 247 248 247 246 246 246 244 242 242 245 246 246 246 245 245 245 245 248 249 244 238 240 241 240 238 239 243 246 247 247 246 245 245 246 246 246 247 249 251 253 255 257 259 260 260 263 265 267 269 271 273 274 275 276 278 279 281 282 285 287 290 293 294 294 294 296 298
269 270 270 270 269 267 266 264 263 261 259 258 257 255 253 251 249 247 246 247 248 248 247 246 246 244 242 242 244 245 246 245 245 245 244 245 248 248 247 246 243 239 238 238 241 245 246 249 247 244 243 243 244 245 246 248 251 253 255 256 257 258 260 262 264 266 268 269 271 273 274 275 277 278 280 281 284 287 290 292 293 294 294 294 295
268 268 269 269 269 268 267 265 264 262 260 258 257 256 254 252 251 249 247 247 247 248 248 247 247 246 244 242 242 243 244 244 244 245 244 243 244 246 248 249 248 245 240 238 242 246 246 250 250 247 244 242 242 246 247 248 250 253 253 254 256 257 259 261 263 264 266 268 270 271 273 275 277 278 279 281 284 286 288 291 293 293 293 293 294
268 268 268 268 268 268 267 266 264 263 262 260 258 256 255 253 252 251 250 248 247 246 247 247 247 247 246 244 242 242 243 242 242 243 243 243 242 242 243 247 249 249 245 239 239 240 241 246 251 252 250 245 242 245 248 248 250 252 252 252 254 256 258 260 261 263 265 267 268 270 272 274 276 277 278 280 283 285 287 290 292 291 292 293 293
269 268 268 268 268 268 267 266 264 263 262 261 260 258 256 255 253 252 251 250 249 247 246 246 246 246 246 246 244 243 242 242 241 241 242 243 242 242 241 243 245 248 249 245 241 240 240 245 251 256 255 249 243 243 246 248 250 250 250 251 252 254 255 257 260 262 263 265 266 269 272 274 275 276 278 280 282 284 287 290 290 290 291 292 292
271 269 268 267 267 267 267 266 264 263 262 261 260 260 259 257 255 253 252 251 250 249 247 246 245 245 245 245 245 244 243 242 241 240 241 241 242 242 241 241 242 244 246 247 246 246 246 247 253 257 256 252 247 246 246 248 251 251 250 250 251 252 253 255 258 260 261 263 266 268 271 273 274 275 277 279 281 283 286 288 288 289 290 291 293
271 270 269 268 267 266 266 266 265 263 262 261 260 259 259 258 257 255 254 252 251 250 249 247 246 245 245 245 244 244 244 243 242 240 240 240 241 242 242 242 241 242 244 246 247 249 250 250 252 254 254 252 251 252 252 251 251 251 250 249 250 250 250 252 255 258 260 263 266 268 271 272 273 274 276 278 280 282 284 286 287 287 289 291 293
271 270 269 268 267 266 265 265 265 264 262 261 260 259 259 258 258 257 255 254 252 251 250 249 247 246 246 246 245 244 243 243 243 242 241 240 240 241 242 242 242 242 243 245 246 247 249 252 251 251 252 253 253 255 257 255 252 252 251 250 250 249 249 250 252 256 259 263 266 269 270 271 271 272 274 276 279 281 284 285 285 286 289 292 292
271 270 269 268 268 267 266 265 264 264 263 262 260 259 259 258 258 257 256 255 254 252 251 250 248 246 245 246 246 245 242 241 242 243 242 241 239 239 240 241 242 241 241 243 245 245 246 250 251 250 251 253 252 253 258 260 259 257 255 253 251 250 248 248 251 255 259 262 266 268 268 269 270 271 273 276 279 281 283 284 285 287 290 292 292
271 271 270 269 268 267 267 266 265 264 263 262 262 260 259 258 257 257 256 256 254 253 252 251 250 248 246 246 246 246 244 242 241 242 242 242 240 239 239 240 241 241 240 241 244 244 244 245 247 249 249 249 250 251 256 262 261 255 253 253 253 251 248 248 251 255 259 262 264 266 266 267 269 272 274 277 278 280 281 283 285 288 289 291 293
273 272 271 270 270 269 268 267 266 265 264 263 263 262 261 259 258 257 256 255 255 254 253 251 250 249 247 246 245 246 246 243 241 240 241 241 240 239 238 239 240 240 239 240 242 243 242 241 243 245 247 248 250 251 254 259 259 254 251 253 254 253 250 249 252 255 259 261 262 264 265 267 270 273 275 277 278 279 281 283 285 286 287 291 295
274 273 272 272 271 270 269 268 267 266 265 264 263 263 262 260 259 258 256 255 254 254 253 252 250 249 247 246 245 245 245 244 243 241 240 240 240 239 238 237 239 239 238 239 242 242 240 238 240 243 245 247 249 250 251 255 257 257 255 255 256 255 252 251 252 255 257 259 260 262 264 268 271 273 274 275 276 278 281 283 282 281 285 292 298
275 274 273 273 272 271 269 268 267 266 265 265 264 263 262 261 261 259 258 256 254 253 253 252 250 248 246 245 244 244 245 244 244 243 241 240 239 238 237 236 236 237 236 237 240 241 239 238 239 241 243 245 246 249 251 253 255 256 257 258 258 256 252 251 252 253 255 257 258 261 264 267 268 270 272 273 275 278 281 280 276 278 287 297 302
276 275 274 273 272 271 270 269 268 267 266 265 264 264 263 262 261 260 259 257 255 253 252 251 251 248 245 244 243 242 244 244 244 244 243 241 239 237 236 235 234 234 234 234 237 239 239 239 239 240 242 243 245 248 250 251 252 253 255 259 259 255 252 252 251 251 253 255 257 260 262 263 266 269 271 273 275 277 275 273 274 280 290 297 301
276 275 274 273 273 272 271 270 268 267 266 265 264 263 262 262 261 260 259 258 256 255 252 250 250 248 245 243 241 241 242 243 243 244 244 242 239 236 235 234 233 233 233 232 233 235 236 236 237 239 241 243 244 246 248 250 251 251 253 257 258 254 252 252 252 251 252 254 258 261 260 261 266 270 271 273 274 271 268 271 277 284 290 295 300
276 275 274 273 273 272 271 270 269 268 267 266 264 263 262 261 260 259 258 258 257 255 253 250 249 248 245 242 240 239 240 242 242 243 244 243 241 237 234 232 232 233 232 232 232 233 232 232 234 238 240 241 240 241 244 248 249 250 253 256 255 253 252 253 253 252 253 254 258 260 260 261 266 269 271 273 270 265 267 273 279 284 289 295 299
278 276 275 274 273 272 271 271 270 269 268 266 264 263 261 260 259 258 257 257 256 255 253 250 247 246 244 241 239 238 238 240 241 242 244 244 242 238 233 231 231 232 231 230 232 232 231 230 232 236 238 238 238 239 242 246 249 251 253 254 253 253 254 255 255 254 254 254 254 256 259 263 267 269 272 273 268 264 269 275 280 284 289 294 298
279 278 277 275 274 273 273 273 272 270 268 266 264 263 261 259 258 256 255 254 254 253 252 249 247 245 242 239 238 237 236 237 239 240 243 244 243 240 234 230 229 230 230 229 230 231 231 229 229 232 235 237 237 239 242 245 248 251 252 250 251 254 255 255 256 255 254 253 251 254 260 264 266 268 272 273 270 268 270 275 279 284 288 294 296
281 280 278 277 276 275 274 273 272 271 269 267 265 263 260 258 256 255 254 252 251 251 250 248 246 243 240 237 236 236 235 235 236 239 241 244 244 241 235 231 228 229 229 229 229 230 231 230 229 229 232 235 236 237 239 242 245 250 251 248 249 253 254 255 255 254 253 252 251 254 260 263 264 266 270 272 270 270 272 274 278 283 290 294 294
282 280 279 278 276 276 275 274 273 272 270 268 266 263 261 258 256 253 252 251 250 248 248 247 246 242 237 235 234 234 233 232 234 238 240 243 244 242 237 233 229 227 227 228 229 229 230 230 229 228 230 233 234 234 237 241 246 250 250 247 247 251 254 255 255 253 252 250 251 255 260 263 265 266 267 269 268 270 273 275 277 284 291 292 290
Height
5822 5823 5825 5826 5827 5829 5831 5833 5834 5835 5837 5838 5840 5841 5842 5844 5845 5847 5848 5849 5851 5852 5854 5855 5856 5857 5859 5860 5861 5863 5864 5866 5867 5868 5868 5869 5870 5870 5871 5873 5874 5875 5876 5877 5877 5878 5878 5878 5878 5879 5879 5879 5879 5879 5879 5879 5879 5878 5878 5878 5877 5877 5877 5876 5876 5875 5875 5874 5873 5872 5871 5870 5869 5868 5867 5866 5865 5863 5862 5861 5860 5859 5857 5856 5854
5821 5823 5824 5824 5824 5827 5830 5832 5832 5832 5835 5836 5838 5840 5841 5842 5843 5845 5847 5848 5849 5851 5852 5853 5854 5855 5857 5858 5859 5861 5863 5864 5865 5866 5867 5868 5869 5870 5871 5872 5873 5873 5874 5875 5876 5876 5877 5877 5877 5878 5878 5878 5878 5878 5878 5878 5878 5877 5877 5877 5876 5876 5876 5876 5875 5875 5874 5874 5873 5872 5871 5870 5869 5868 5866 5866 5865 5863 5862 5861 5860 5859 5857 5856 5854
5820 5821 5823 5823 5822 5824 5827 5829 5829 5829 5832 5835 5836 5838 5839 5840 5842 5843 5845 5846 5847 5849 5850 5851 5853 5853 5855 5856 5858 5859 5861 5862 5863 5865 5866 5867 5868 5868 5869 5870 5871 5872 5873 5874 5874 5875 5875 5876 5876 5877 5877 5877 5877 5877 5877 5877 5877 5876 5876 5876 5876 5875 5875 5875 5874 5874 5874 5873 5873 5872 5871 5870 5868 5867 5866 5865 5865 5863 5862 5861 5860 5859 5857 5856 5854
5817 5818 5820 5821 5821 5823 5825 5827 5827 5827 5830 5832 5835 5836 5838 5839 5840 5841 5842 5844 5846 5847 5848 5849 5851 5851 5853 5854 5856 5857 5859 5860 5861 5863 5864 5865 5866 5867 5868 5869 5870 5871 5872 5872 5873 5874 5874 5874 5875 5875 5876 5876 5876 5876 5876 5876 5876 5875 5875 5875 5875 5874 5874 5874 5874 5873 5873 5873 5872 5871 5870 5869 5868 5867 5866 5865 5864 5863 5862 5861 5860 5858 5857 5855 5854
5812 5816 5817 5818 5820 5822 5824 5826 5825 5826 5828 5830 5833 5834 5836 5837 5838 5839 5840 5842 5844 5845 5846 5847 5848 5850 5851 5852 5854 5855 5857 5858 5859 5860 5862 5863 5864 5865 5867 5868 5869 5870 5871 5871 5872 5872 5873 5873 5874 5874 5875 5875 5875 5874 5874 5875 5875 5874 5874 5874 5874 5873 5873 5873 5873 5872 5872 5872 5871 5870 5869 5868 5867 5867 5866 5865 5864 5863 5862 5860 5859 5858 5856 5855 5853
5810 5813 5815 5816 5818 5820 5822 5824 5823 5823 5826 5828 5830 5832 5833 5835 5836 5837 5838 5840 5841 5843 5844 5845 5847 5848 5849 5850 5852 5853 5854 5856 5857 5858 5860 5861 5862 5863 5865 5866 5867 5868 5870 5870 5871 5871 5871 5872 5872 5873 5873 5873 5873 5873 5873 5873 5873 5873 5873 5872 5872 5872 5872 5872 5872 5871 5871 5871 5870 5869 5868 5867 5867 5866 5865 5864 5863 5862 5861 5860 5858 5857 5856 5854 5852
5808 5811 5812 5813 5815 5817 5819 5821 5820 5821 5823 5825 5827 5829 5831 5833 5834 5835 5836 5837 5839 5840 5842 5843 5845 5846 5847 5848 5849 5851 5852 5853 5855 5856 5857 5859 5860 5861 5863 5864 5865 5867 5868 5869 5869 5870 5870 5870 5871 5871 5872 5872 5872 5871 5871 5872 5872 5872 5871 5871 5871 5871 5871 5871 5871 5870 5870 5870 5869 5868 5867 5866 5865 5865 5864 5863 5862 5861 5860 5859 5858 5856 5855 5853 5851
5807 5808 5809 5810 5812 5814 5815 5818 5818 5820 5822 5823 5825 5827 5828 5830 5831 5832 5833 5835 5836 5837 5839 5841 5842 5844 5845 5846 5847 5848 5850 5851 5852 5854 5855 5856 5858 5859 5861 5862 5863 5865 5866 5867 5867 5868 5868 5869 5869 5870 5870 5870 5870 5870 5870 5871 5871 5871 5870 5870 5870 5870 5870 5870 5869 5869 5869 5868 5868 5867 5866 5865 5864 5864 5863 5862 5861 5860 5859 5858 5857 5855 5854 5852 5850
5805 5805 5806 5808 5810 5811 5812 5814 5815 5817 5819 5821 5822 5824 5825 5827 5828 5828 5829 5831 5833 5834 5835 5837 5839 5841 5842 5844 5845 5846 5847 5849 5850 5852 5853 5854 5855 5857 5859 5860 5861 5862 5863 5864 5865 5866 5866 5867 5867 5868 5868 5869 5869 5869 5869 5869 5870 5869 5869 5869 5868 5868 5868 5868 5868 5867 5867 5867 5866 5865 5864 5864 5863 5862 5861 5861 5860 5859 5858 5857 5855 5854 5853 5851 5849
5802 5803 5804 5806 5807 5808 5809 5810 5811 5813 5816 5817 5819 5821 5822 5823 5825 5825 5826 5827 5830 5831 5833 5834 5835 5837 5839 5841 5842 5844 5845 5846 5847 5849 5850 5852 5853 5855 5856 5857 5859 5860 5861 5862 5863 5863 5864 5865 5865 5866 5866 5867 5867 5867 5867 5868 5868 5868 5868 5867 5867 5867 5867 5867 5866 5866 5866 5865 5865 5864 5863 5862 5861 5861 5860 5859 5859 5858 5857 5856 5854 5853 5851 5849 5848
5800 5801 5801 5803 5804 5805 5806 5806 5808 5810 5812 5813 5815 5817 5819 5820 5821 5823 5823 5823 5825 5828 5830 5831 5833 5834 5835 5837 5839 5841 5842 5843 5845 5846 5848 5849 5851 5852 5854 5855 5856 5857 5858 5859 5860 5861 5862 5862 5863 5863 5864 5864 5865 5865 5865 5866 5866 5867 5866 5866 5866 5865 5865 5865 5865 5865 5864 5864 5863 5862 5862 5861 5860 5859 5858 5858 5857 5857 5856 5854 5853 5852 5850 5848 5846
5796 5798 5798 5800 5801 5802 5803 5803 5805 5806 5808 5809 5810 5812 5814 5815 5818 5819 5819 5821 5822 5824 5826 5828 5830 5831 5832 5834 5835 5837 5839 5840 5842 5844 5845 5847 5848 5850 5851 5852 5853 5855 5856 5857 5857 5859 5859 5860 5860 5861 5861 5862 5862 5863 5863 5863 5864 5865 5865 5864 5864 5864 5864 5863 5863 5863 5863 5862 5862 5861 5860 5860 5859 5858 5857 5856 5856 5855 5854 5853 5852 5850 5848 5846 5845
5792 5794 5795 5796 5797 5798 5800 5801 5802 5803 5804 5806 5807 5807 5809 5811 5814 5815 5817 5818 5820 5821 5823 5824 5826 5828 5829 5831 5832 5832 5834 5836 5838 5841 5843 5844 5846 5847 5848 5849 5851 5853 5853 5854 5855 5855 5856 5857 5858 5858 5859 5859 5860 5860 5861 5861 5862 5862 5863 5862 5862 5862 5862 5862 5861 5861 5861 5861 5860 5859 5859 5858 5857 5856 5855 5855 5854 5854 5852 5851 5850 5848 5847 5845 5843
5789 5790 5791 5792 5793 5794 5796 5798 5799 5800 5801 5802 5803 5804 5806 5807 5809 5812 5813 5814 5815 5817 5819 5820 5822 5825 5826 5827 5828 5829 5831 5833 5835 5837 5840 5842 5843 5843 5844 5846 5848 5849 5850 5851 5852 5852 5854 5854 5855 5855 5856 5857 5857 5857 5858 5859 5859 5860 5861 5860 5860 5860 5860 5860 5859 5859 5859 5859 5858 5857 5857 5856 5856 5855 5854 5853 5853 5852 5851 5849 5848 5847 5845 5843 5841
5786 5786 5787 5788 5790 5791 5792 5794 5795 5797 5798 5799 5800 5801 5803 5804 5806 5807 5808 5809 5811 5813 5815 5817 5819 5820 5822 5823 5825 5826 5827 5830 5832 5834 5835 5836 5837 5839 5841 5842 5843 5844 5845 5847 5848 5849 5850 5851 5852 5852 5853 5854 5855 5855 5856 5856 5856 5857 5858 5858 5858 5858 5857 5857 5857 5857 5857 5857 5856 5855 5855 5854 5854 5853 5852 5852 5851 5850 5849 5847 5846 5844 5843 5841 5839
5782 5783 5783 5784 5786 5787 5788 5789 5791 5793 5794 5795 5796 5798 5799 5800 5801 5802 5804 5805 5807 5810 5811 5814 5816 5816 5817 5820 5820 5821 5824 5827 5828 5829 5830 5831 5833 5835 5837 5839 5839 5840 5841 5843 5844 5846 5847 5848 5849 5850 5850 5850 5851 5852 5852 5853 5853 5854 5856 5856 5855 5855 5855 5855 5855 5855 5855 5854 5854 5853 5853 5852 5851 5851 5850 5849 5849 5847 5847 5845 5844 5842 5841 5839 5837
5778 5779 5779 5780 5781 5783 5783 5785 5787 5788 5790 5791 5793 5795 5796 5796 5797 5798 5800 5801 5804 5806 5807 5809 5811 5811 5813 5816 5816 5818 5822 5823 5823 5824 5826 5827 5829 5831 5832 5835 5836 5837 5838 5839 5840 5841 5843 5844 5845 5847 5847 5847 5847 5849 5849 5850 5850 5851 5852 5853 5853 5853 5853 5853 5852 5852 5852 5852 5851 5851 5850 5850 5849 5848 5848 5847 5846 5845 5844 5843 5842 5840 5839 5837 5835
5774 5775 5775 5776 5777 5778 5779 5780 5782 5783 5785 5787 5788 5791 5792 5792 5794 5794 5796 5797 5799 5801 5803 5806 5808 5807 5809 5811 5812 5815 5817 5817 5818 5821 5822 5823 5825 5826 5828 5830 5832 5833 5834 5836 5837 5837 5838 5840 5842 5843 5844 5844 5844 5845 5846 5847 5847 5848 5849 5850 5850 5850 5851 5850 5850 5850 5849 5849 5849 5848 5848 5847 5847 5846 5845 5845 5844 5843 5842 5841 5840 5838 5837 5835 5833
5769 5770 5771 5772 5773 5773 5775 5776 5777 5779 5780 5782 5783 5785 5787 5789 5790 5790 5791 5793 5794 5795 5798 5802 5801 5800 5803 5806 5807 5810 5811 5812 5815 5816 5817 5819 5820 5821 5823 5825 5827 5828 5830 5832 5833 5834 5835 5837 5839 5840 5840 5841 5841 5842 5843 5843 5844 5845 5846 5847 5847 5847 5848 5847 5847 5847 5846 5846 5846 5845 5845 5845 5844 5843 5843 5842 5842 5840 5839 5838 5837 5836 5835 5833 5831
5764 5765 5766 5768 5769 5769 5770 5771 5772 5774 5775 5777 5778 5780 5782 5783 5784 5786 5787 5788 5790 5791 5794 5796 5794 5794 5798 5800 5802 5805 5806 5808 5810 5811 5811 5814 5815 5817 5819 5821 5823 5824 5826 5828 5829 5830 5831 5833 5835 5834 5835 5836 5837 5838 5839 5840 5841 5841 5842 5844 5844 5844 5845 5844 5843 5843 5843 5843 5843 5842 5842 5842 5842 5841 5840 5840 5839 5838 5837 5836 5835 5834 5832 5831 5829
5760 5760 5761 5762 5764 5764 5765 5766 5767 5768 5770 5772 5773 5774 5776 5777 5779 5781 5783 5784 5785 5786 5789 5790 5789 5790 5792 5794 5797 5799 5801 5803 5804 5805 5806 5808 5810 5813 5816 5817 5818 5820 5821 5823 5825 5825 5826 5829 5830 5830 5830 5832 5833 5834 5835 5835 5837 5838 5839 5840 5840 5840 5841 5841 5840 5840 5840 5840 5840 5840 5840 5839 5839 5838 5838 5837 5836 5835 5834 5833 5832 5831 5830 5829 5827
5756 5756 5756 5757 5758 5759 5760 5761 5762 5763 5764 5766 5768 5769 5770 5771 5773 5775 5777 5778 5780 5781 5783 5785 5785 5785 5787 5788 5790 5793 5796 5798 5800 5800 5802 5803 5806 5809 5811 5812 5814 5816 5817 5819 5820 5820 5822 5825 5826 5826 5826 5828 5830 5830 5831 5831 5833 5835 5836 5837 5837 5837 5838 5837 5837 5837 5837 5837 5837 5837 5837 5837 5836 5836 5835 5834 5833 5832 5831 5830 5830 5828 5827 5826 5824
5751 5751 5752 5752 5753 5753 5754 5755 5756 5757 5758 5760 5761 5763 5765 5765 5766 5769 5771 5772 5773 5776 5777 5779 5780 5780 5782 5783 5785 5788 5791 5794 5795 5796 5797 5799 5801 5803 5805 5807 5810 5812 5812 5815 5816 5816 5818 5820 5822 5822 5822 5823 5826 5826 5827 5828 5829 5831 5833 5833 5833 5833 5834 5834 5833 5833 5834 5834 5834 5834 5834 5834 5833 5833 5832 5831 5830 5829 5828 5827 5826 5825 5824 5823 5821
5745 5746 5746 5747 5747 5748 5749 5749 5750 5751 5752 5754 5755 5756 5758 5760 5761 5763 5765 5766 5767 5769 5771 5774 5775 5775 5777 5779 5780 5783 5785 5788 5790 5790 5793 5794 5795 5798 5799 5801 5804 5806 5808 5810 5811 5812 5814 5815 5817 5818 5818 5819 5822 5823 5823 5824 5826 5828 5830 5829 5829 5830 5830 5830 5830 5830 5831 5831 5830 5830 5830 5830 5830 5829 5829 5828 5827 5826 5825 5824 5823 5822 5821 5819 5818
5739 5740 5740 5741 5742 5742 5743 5743 5744 5745 5746 5747 5748 5750 5751 5753 5755 5757 5758 5759 5760 5763 5766 5768 5769 5769 5772 5773 5775 5777 5780 5783 5784 5785 5787 5788 5789 5792 5794 5795 5798 5800 5802 5804 5806 5808 5809 5810 5812 5813 5814 5814 5817 5819 5819 5821 5824 5825 5826 5825 5825 5826 5827 5827 5827 5827 5827 5827 5827 5827 5826 5827 5827 5826 5825 5825 5824 5822 5821 5820 5819 5818 5817 5816 5815
5733 5734 5734 5735 5736 5736 5737 5738 5739 5739 5740 5741 5742 5743 5745 5746 5748 5750 5752 5753 5754 5756 5759 5761 5763 5764 5766 5768 5769 5772 5774 5775 5777 5780 5782 5782 5783 5786 5789 5791 5791 5793 5795 5797 5801 5804 5804 5806 5808 5809 5810 5810 5812 5815 5816 5818 5820 5821 5821 5821 5821 5822 5823 5824 5824 5823 5824 5823 5823 5823 5823 5823 5823 5822 5822 5821 5820 5819 5818 5817 5816 5814 5813 5812 5811
5726 5727 5728 5729 5729 5730 5731 5732 5733 5733 5734 5735 5736 5737 5738 5739 5741 5743 5745 5747 5748 5750 5752 5754 5757 5758 5760 5762 5764 5766 5768 5770 5772 5775 5776 5777 5779 5781 5784 5785 5785 5786 5789 5790 5794 5799 5800 5802 5803 5804 5805 5806 5808 5812 5813 5815 5816 5816 5816 5816 5817 5818 5819 5820 5820 5820 5820 5820 5819 5819 5819 5820 5819 5819 5818 5817 5816 5815 5814 5813 5812 5811 5810 5809 5808
5719 5720 5721 5722 5723 5723 5724 5725 5726 5727 5728 5729 5730 5731 5731 5732 5734 5736 5738 5740 5742 5744 5745 5747 5749 5751 5753 5756 5757 5760 5763 5764 5766 5769 5770 5772 5774 5775 5777 5779 5779 5781 5782 5783 5787 5792 5795 5797 5798 5799 5800 5801 5805 5808 5809 5811 5811 5810 5810 5812 5813 5814 5815 5815 5815 5816 5816 5816 5816 5816 5816 5816 5816 5815 5814 5814 5812 5811 5810 5810 5809 5807 5806 5805 5804
5712 5713 5714 5715 5716 5716 5717 5718 5719 5720 5721 5722 5723 5724 5725 5725 5727 5729 5731 5732 5734 5736 5738 5740 5742 5744 5746 5749 5751 5754 5757 5759 5761 5763 5764 5766 5768 5770 5771 5773 5774 5775 5776 5777 5780 5785 5789 5791 5792 5793 5794 5798 5802 5804 5804 5806 5806 5804 5806 5808 5809 5810 5810 5810 5811 5812 5812 5812 5812 5813 5812 5812 5812 5811 5810 5810 5809 5808 5807 5806 5805 5804 5803 5801 5800
5706 5706 5707 5708 5709 5710 5710 5711 5712 5713 5714 5715 5716 5718 5718 5719 5720 5722 5724 5725 5727 5729 5731 5733 5735 5737 5739 5742 5744 5746 5750 5752 5754 5756 5757 5759 5762 5764 5766 5767 5769 5770 5771 5773 5774 5777 5782 5784 5785 5787 5789 5793 5798 5799 5799 5801 5800 5800 5802 5803 5804 5805 5805 5806 5807 5808 5808 5809 5809 5809 5808 5808 5808 5807 5807 5806 5805 5804 5803 5803 5802 5801 5799 5798 5797
5700 5700 5700 5701 5702 5703 5703 5704 5705 5705 5706 5707 5709 5710 5711 5713 5714 5715 5716 5718 5720 5722 5723 5725 5728 5730 5732 5734 5736 5739 5742 5745 5748 5750 5751 5753 5755 5758 5760 5761 5763 5765 5767 5767 5767 5771 5775 5776 5778 5783 5785 5787 5792 5793 5794 5795 5795 5795 5798 5800 5800 5800 5800 5801 5803 5804 5804 5805 5805 5805 5805 5804 5804 5803 5803 5802 5801 5800 5800 5799 5798 5797 5796 5794 5793
5694 5694 5694 5694 5695 5696 5697 5697 5698 5699 5699 5700 5701 5702 5704 5705 5707 5708 5709 5710 5712 5714 5716 5718 5720 5723 5725 5727 5729 5732 5735 5737 5740 5743 5746 5747 5748 5751 5753 5755 5757 5759 5761 5761 5762 5766 5769 5768 5771 5777 5779 5781 5786 5786 5787 5789 5790 5790 5794 5796 5796 5795 5796 5798 5799 5800 5801 5801 5801 5801 5801 5800 5800 5799 5798 5798 5797 5797 5796 5795 5794 5793 5792 5791 5789
5688 5688 5688 5688 5688 5689 5690 5691 5691 5692 5692 5693 5693 5694 5696 5697 5699 5701 5702 5704 5705 5707 5708 5710 5712 5715 5718 5720 5722 5725 5727 5730 5733 5736 5739 5742 5743 5744 5747 5748 5751 5754 5756 5756 5758 5761 5763 5762 5765 5770 5771 5775 5779 5778 5780 5784 5785 5786 5791 5792 5790 5789 5792 5794 5795 5796 5797 5797 5797 5797 5797 5796 5796 5795 5794 5794 5794 5793 5793 5792 5791 5789 5788 5787 5785
5682 5682 5682 5682 5682 5682 5683 5684 5684 5685 5686 5686 5687 5687 5688 5690 5691 5693 5695 5696 5698 5699 5701 5703 5705 5707 5710 5712 5715 5717 5720 5722 5725 5728 5732 5735 5737 5739 5742 5743 5745 5748 5751 5753 5754 5757 5759 5758 5759 5761 5764 5770 5773 5772 5774 5779 5779 5781 5786 5787 5784 5785 5788 5789 5790 5792 5792 5792 5793 5792 5792 5792 5792 5791 5790 5790 5790 5789 5789 5788 5786 5785 5784 5783 5781
5676 5676 5676 5676 5675 5676 5677 5677 5678 5678 5679 5680 5680 5681 5681 5682 5684 5685 5687 5688 5690 5692 5694 5696 5698 5699 5702 5705 5707 5709 5712 5715 5718 5721 5724 5727 5730 5734 5737 5738 5739 5742 5744 5747 5749 5752 5754 5754 5754 5755 5759 5765 5768 5767 5768 5771 5773 5776 5780 5780 5779 5781 5784 5785 5786 5787 5788 5788 5788 5788 5788 5788 5787 5787 5786 5786 5786 5785 5784 5784 5782 5781 5779 5778 5777
5669 5669 5669 5669 5669 5669 5670 5670 5671 5671 5672 5673 5673 5674 5675 5675 5677 5678 5679 5681 5682 5684 5686 5688 5691 5692 5694 5697 5699 5702 5704 5707 5711 5714 5716 5719 5722 5726 5730 5733 5735 5736 5738 5741 5743 5745 5747 5748 5748 5751 5755 5758 5760 5762 5763 5764 5767 5771 5773 5774 5774 5777 5779 5780 5781 5783 5783 5782 5783 5783 5783 5783 5783 5783 5782 5782 5782 5781 5780 5780 5778 5777 5775 5774 5773
5661 5662 5662 5662 5662 5662 5663 5663 5664 5664 5665 5665 5666 5667 5667 5668 5669 5671 5672 5673 5675 5676 5679 5681 5683 5685 5687 5689 5692 5694 5696 5700 5703 5706 5709 5711 5714 5718 5722 5725 5729 5731 5733 5735 5738 5739 5741 5742 5744 5746 5748 5752 5754 5756 5758 5758 5761 5765 5767 5768 5769 5772 5774 5775 5776 5777 5777 5777 5778 5779 5779 5778 5778 5778 5778 5778 5777 5777 5776 5775 5774 5772 5771 5770 5769
5653 5653 5654 5654 5654 5655 5655 5656 5656 5657 5658 5658 5659 5659 5660 5660 5662 5663 5664 5666 5667 5669 5671 5673 5675 5678 5679 5681 5684 5686 5689 5692 5695 5698 5701 5703 5706 5710 5713 5717 5721 5724 5727 5730 5732 5733 5735 5738 5741 5741 5741 5746 5750 5752 5754 5754 5756 5758 5760 5761 5763 5765 5768 5770 5770 5770 5771 5772 5773 5774 5774 5773 5773 5773 5773 5773 5773 5772 5772 5771 5769 5768 5766 5766 5765
5645 5645 5645 5646 5646 5647 5648 5648 5648 5649 5650 5651 5651 5652 5652 5653 5654 5655 5656 5658 5660 5661 5663 5665 5667 5669 5671 5673 5675 5678 5682 5685 5687 5690 5693 5695 5699 5702 5705 5709 5713 5717 5721 5724 5725 5728 5730 5733 5735 5736 5736 5740 5745 5748 5749 5749 5751 5752 5753 5755 5757 5760 5762 5764 5764 5764 5766 5767 5768 5768 5769 5769 5768 5769 5769 5769 5768 5768 5767 5766 5765 5763 5762 5762 5760
5638 5637 5637 5637 5638 5638 5639 5640 5640 5641 5641 5642 5643 5644 5645 5645 5645 5646 5648 5649 5651 5653 5655 5656 5658 5661 5663 5664 5667 5670 5674 5678 5680 5682 5684 5687 5691 5695 5698 5702 5705 5709 5714 5717 5718 5721 5725 5728 5729 5730 5731 5734 5739 5742 5743 5744 5747 5748 5749 5751 5754 5755 5756 5757 5758 5759 5760 5762 5763 5764 5764 5764 5763 5764 5764 5764 5764 5764 5763 5762 5760 5759 5758 5758 5756
5630 5630 5629 5629 5629 5630 5630 5631 5632 5632 5633 5634 5635 5636 5636 5637 5637 5638 5639 5641 5643 5644 5647 5648 5650 5653 5655 5657 5659 5662 5666 5670 5673 5675 5677 5679 5683 5687 5691 5694 5697 5701 5706 5710 5711 5713 5719 5723 5724 5723 5724 5727 5733 5738 5739 5740 5743 5744 5745 5747 5748 5749 5750 5751 5753 5754 5755 5757 5758 5759 5759 5758 5758 5759 5759 5760 5760 5759 5758 5757 5755 5755 5754 5753 5752
5623 5622 5621 5621 5621 5621 5622 5622 5623 5624 5624 5626 5627 5627 5627 5627 5628 5629 5630 5632 5634 5635 5638 5640 5642 5644 5647 5649 5651 5654 5657 5661 5664 5667 5669 5672 5675 5679 5684 5687 5690 5694 5699 5702 5704 5706 5712 5717 5717 5716 5718 5722 5729 5734 5735 5736 5737 5738 5740 5742 5742 5743 5745 5746 5748 5749 5751 5752 5753 5753 5753 5753 5753 5754 5755 5756 5756 5755 5754 5753 5751 5750 5750 5749 5748
5615 5614 5614 5613 5613 5613 5613 5614 5614 5615 5616 5617 5618 5618 5618 5618 5618 5619 5620 5622 5624 5626 5629 5631 5634 5636 5638 5641 5643 5645 5648 5652 5656 5659 5662 5664 5668 5672 5676 5680 5683 5687 5692 5695 5697 5700 5705 5709 5710 5710 5713 5718 5725 5729 5730 5731 5732 5733 5735 5736 5736 5738 5740 5741 5743 5744 5746 5747 5747 5747 5748 5748 5749 5750 5751 5752 5751 5750 5749 5748 5747 5746 5746 5745 5743
5607 5606 5606 5605 5605 5605 5605 5605 5606 5606 5607 5608 5608 5609 5609 5609 5609 5609 5610 5612 5615 5617 5619 5621 5624 5627 5630 5632 5635 5637 5640 5644 5648 5650 5654 5657 5660 5664 5668 5672 5676 5680 5684 5687 5690 5694 5698 5701 5703 5705 5708 5714 5720 5723 5725 5726 5728 5729 5730 5730 5731 5733 5735 5736 5738 5739 5740 5741 5741 5742 5743 5743 5744 5745 5746 5747 5747 5746 5745 5743 5742 5742 5741 5740 5738
5599 5599 5598 5597 5597 5596 5596 5597 5597 5597 5598 5599 5599 5599 5599 5599 5599 5599 5600 5602 5604 5607 5610 5612 5614 5618 5621 5623 5626 5629 5633 5636 5639 5642 5646 5649 5653 5656 5660 5664 5668 5672 5676 5680 5684 5688 5692 5694 5697 5699 5702 5708 5715 5719 5719 5720 5721 5723 5723 5725 5726 5728 5729 5731 5732 5734 5735 5735 5736 5737 5738 5739 5739 5740 5741 5742 5743 5743 5740 5738 5738 5738 5736 5735 5734
5591 5591 5590 5589 5589 5588 5587 5588 5588 5589 5589 5589 5590 5590 5590 5590 5589 5589 5590 5591 5593 5596 5600 5602 5605 5608 5612 5615 5618 5622 5625 5627 5631 5634 5637 5641 5645 5648 5652 5656 5660 5664 5668 5673 5677 5681 5685 5688 5691 5693 5696 5703 5711 5714 5713 5712 5714 5716 5717 5719 5721 5723 5724 5726 5727 5729 5730 5730 5731 5732 5733 5734 5735 5736 5736 5737 5739 5739 5736 5734 5734 5733 5732 5731 5730
5583 5583 5582 5581 5580 5580 5579 5578 5579 5580 5580 5579 5579 5580 5580 5580 5579 5579 5580 5581 5583 5586 5589 5592 5595 5598 5602 5606 5609 5613 5616 5619 5623 5627 5629 5632 5636 5640 5644 5648 5653 5656 5661 5666 5670 5673 5677 5681 5685 5688 5691 5697 5704 5706 5706 5705 5707 5709 5712 5714 5716 5718 5719 5721 5722 5724 5724 5725 5727 5728 5728 5730 5731 5731 5731 5733 5735 5735 5732 5730 5729 5729 5728 5727 5726
5575 5575 5574 5573 5572 5571 5571 5570 5569 5570 5570 5569 5569 5569 5569 5569 5568 5569 5570 5571 5572 5575 5578 5582 5585 5588 5592 5596 5600 5605 5608 5611 5616 5619 5621 5624 5627 5631 5635 5640 5644 5648 5653 5658 5662 5665 5669 5674 5678 5681 5685 5690 5696 5699 5700 5700 5701 5703 5707 5709 5711 5714 5715 5716 5718 5719 5720 5721 5723 5723 5722 5725 5727 5726 5726 5728 5730 5730 5728 5726 5725 5724 5724 5723 5721
5568 5567 5565 5564 5563 5562 5562 5561 5560 5560 5560 5560 5559 5558 5558 5558 5558 5558 5560 5560 5562 5565 5568 5572 5575 5579 5583 5587 5591 5595 5599 5604 5608 5611 5614 5616 5618 5621 5626 5631 5636 5640 5644 5650 5654 5658 5662 5668 5671 5675 5679 5683 5688 5693 5695 5695 5696 5698 5701 5705 5707 5709 5710 5711 5713 5714 5715 5716 5718 5718 5718 5721 5723 5722 5721 5723 5724 5724 5723 5722 5720 5719 5719 5718 5716
5560 5559 5557 5556 5555 5554 5553 5552 5550 5549 5550 5549 5548 5547 5547 5546 5546 5548 5548 5549 5552 5555 5558 5561 5565 5569 5573 5578 5582 5586 5591 5597 5600 5603 5606 5608 5610 5613 5618 5623 5628 5632 5637 5643 5648 5652 5657 5661 5665 5670 5674 5677 5682 5686 5688 5689 5691 5693 5696 5700 5702 5703 5705 5707 5708 5709 5710 5711 5712 5713 5714 5716 5718 5717 5717 5718 5719 5718 5719 5719 5716 5714 5714 5713 5711
5553 5551 5549 5547 5546 5545 5543 5542 5540 5539 5539 5539 5538 5537 5536 5535 5536 5537 5537 5538 5542 5545 5548 5551 5556 5560 5564 5569 5574 5578 5584 5589 5592 5595 5598 5601 5603 5606 5609 5614 5619 5625 5631 5638 5642 5646 5651 5655 5659 5664 5668 5672 5676 5680 5682 5684 5687 5689 5691 5694 5696 5697 5699 5702 5704 5705 5706 5707 5708 5709 5710 5711 5713 5713 5712 5713 5714 5713 5714 5715 5713 5710 5709 5708 5707